Theta_e
286 286 286 286 286 286 286 286 286 286 286 286 285 285 285 285 285 285 285 285 285 285 285 285 285 284 284 284 284 284 285 285 285 285 284 284 284 285 285 285 285 285 285 285 285 286 287 288 290 290 291 291 291 291 292 292 292 292 292 291 291 291 291 290 290 291 292 292 293 293 294 295 295 295 295 295 295 295 294 294 293 291 291 291 290
286 286 286 286 285 285 285 285 285 285 286 285 285 285 285 284 284 284 284 284 284 284 284 284 284 284 284 284 284 283 283 284 284 284 284 284 284 284 284 284 284 285 285 285 285 285 285 285 287 288 289 290 290 290 291 291 291 291 291 291 291 291 291 290 290 290 291 291 292 292 293 293 294 294 294 294 295 295 295 294 294 292 292 291 291
286 286 286 286 286 286 286 285 286 286 286 286 285 285 284 284 284 283 283 283 283 282 282 282 283 282 283 283 283 283 283 283 283 283 283 283 283 284 283 283 283 283 284 284 285 285 285 285 285 285 286 287 288 289 290 290 290 290 290 290 290 290 290 290 290 290 290 291 291 292 292 293 293 293 294 294 294 294 294 294 294 294 293 291 291
287 286 286 286 286 286 286 286 286 286 285 285 285 284 284 283 283 283 282 282 282 282 281 281 281 281 281 281 281 282 282 282 282 282 282 282 282 282 283 282 282 283 283 283 284 284 284 284 284 284 284 285 286 287 288 289 289 289 290 290 290 290 290 290 290 290 289 290 290 291 292 292 292 293 293 293 293 292 292 293 293 292 292 291 290
287 287 287 287 287 286 286 286 286 285 285 284 284 283 283 282 282 282 281 281 281 281 281 281 281 281 280 280 280 280 281 281 281 281 281 281 281 281 281 281 282 282 282 282 282 283 284 284 284 284 284 284 284 285 286 287 288 289 289 289 289 289 289 289 289 289 289 289 289 290 291 291 292 292 292 291 291 290 290 290 290 290 290 290 289
287 287 287 287 287 287 286 286 286 285 284 284 283 283 282 281 281 281 280 281 281 281 280 280 280 280 280 280 280 280 280 280 280 280 281 281 281 280 280 280 281 281 281 281 281 282 283 283 284 284 284 284 284 284 284 285 286 287 288 288 289 289 289 289 289 289 288 288 288 289 289 290 290 291 291 290 290 290 289 289 288 289 288 288 288
287 287 287 287 287 286 286 286 285 285 284 284 283 282 281 280 280 279 280 280 280 280 280 279 279 279 279 279 279 279 279 279 280 280 280 280 280 280 280 280 280 280 280 281 281 281 282 282 283 283 284 284 284 284 284 284 285 286 287 287 288 288 288 288 288 288 288 288 288 288 288 289 289 290 290 290 289 289 289 288 287 287 287 288 288
288 287 287 287 286 286 285 285 285 284 284 283 282 281 280 279 279 279 279 279 278 278 278 278 278 278 278 278 278 279 279 279 279 279 279 279 279 279 279 279 280 280 280 280 281 281 282 282 283 283 283 284 284 284 284 284 285 285 285 286 287 287 287 288 287 287 287 287 287 288 288 288 288 289 289 288 287 287 287 287 286 287 287 287 288
287 287 286 286 285 285 284 284 283 282 282 281 280 279 278 278 278 278 277 277 277 277 277 277 277 277 277 277 278 278 278 278 278 278 278 279 279 279 280 280 280 280 280 280 280 281 281 281 282 283 283 283 283 284 284 284 285 285 285 285 286 287 287 287 287 287 287 287 287 288 287 287 287 287 287 286 286 287 287 286 286 287 286 286 287
286 286 285 285 284 284 283 283 281 280 279 279 278 277 277 276 276 276 276 276 276 275 275 275 276 276 276 277 277 277 277 277 277 278 278 279 279 280 280 280 280 280 280 280 280 280 280 281 281 282 282 283 283 283 283 284 284 284 285 285 286 286 287 287 287 287 287 287 287 288 287 287 287 287 286 287 287 287 287 286 286 286 285 285 285
285 285 284 284 283 282 281 280 279 279 278 277 276 276 275 275 275 275 275 274 274 274 274 274 275 275 275 275 276 276 276 276 277 277 278 278 279 279 279 279 279 279 279 279 279 279 280 280 280 281 281 281 282 282 282 283 283 284 284 284 285 286 286 287 287 287 287 287 287 288 288 288 288 287 287 287 287 287 287 286 286 285 285 284 285
284 283 282 281 281 280 279 278 277 277 276 276 275 275 275 274 274 274 273 273 273 273 273 273 273 273 273 273 273 273 274 274 275 275 276 276 277 277 278 278 278 278 278 278 278 279 279 279 279 279 280 280 281 281 282 282 283 283 284 284 284 285 286 286 287 287 287 287 287 288 288 288 288 288 287 287 286 286 286 286 286 285 285 285 285
282 281 279 279 278 277 277 276 276 275 275 274 274 274 273 273 273 272 272 271 271 271 270 270 270 270 270 270 270 270 271 271 272 273 274 274 275 276 276 276 276 276 277 277 277 277 277 278 278 278 278 279 279 280 281 282 282 283 283 283 284 284 285 285 286 287 288 288 288 288 288 288 288 289 288 288 287 286 286 285 285 285 285 285 286
279 278 277 277 276 276 275 275 274 274 273 273 273 272 272 272 271 270 270 269 269 268 268 268 268 268 268 268 268 268 268 269 270 271 272 272 273 274 274 275 275 275 275 275 276 276 276 276 276 276 277 277 277 278 279 280 281 282 282 283 283 284 284 284 285 286 287 288 288 288 288 288 288 289 289 289 288 287 286 286 286 285 285 286 286
277 277 276 275 275 275 274 273 273 273 272 272 272 271 271 270 269 268 267 267 267 266 266 266 266 266 266 266 266 265 266 266 268 269 270 271 272 272 273 273 273 273 274 274 274 274 275 275 275 275 275 275 276 277 277 278 280 281 282 282 283 283 283 284 284 284 285 287 287 288 288 288 289 289 289 289 288 288 287 287 287 286 286 286 286
276 275 274 274 273 273 272 272 271 271 271 271 271 270 269 268 267 266 266 265 265 265 265 265 264 264 264 264 264 264 264 265 266 267 268 269 270 270 270 271 271 271 271 271 272 272 273 273 273 273 273 274 274 275 276 277 278 279 280 281 282 283 283 283 283 284 284 284 285 286 287 287 288 288 289 289 289 289 288 287 287 286 286 286 285
274 273 272 272 272 271 270 270 270 270 269 269 269 268 267 266 265 265 264 264 264 264 264 264 264 263 263 263 263 263 263 264 265 267 267 268 269 269 269 269 270 270 270 270 270 271 271 272 272 272 273 273 273 274 275 276 277 278 278 279 280 281 282 282 283 283 284 284 284 285 286 286 287 288 288 289 289 289 288 286 286 286 285 285 285
272 271 271 271 270 270 269 269 269 269 268 268 267 266 265 264 264 264 263 263 263 263 263 263 263 263 263 263 263 263 263 264 264 266 266 267 268 269 269 269 269 270 270 270 270 270 270 271 272 272 272 273 273 274 275 275 276 277 278 279 280 281 281 282 283 283 283 284 284 285 285 286 286 287 288 288 289 289 288 287 286 286 286 285 286
271 270 270 270 270 270 269 268 268 268 267 266 265 264 264 264 263 263 263 263 263 263 262 262 262 262 262 262 263 263 263 263 264 265 266 267 268 268 269 269 269 269 269 269 269 269 269 270 270 271 271 272 273 274 274 275 275 276 276 277 278 279 280 281 282 283 283 284 284 284 285 285 286 287 287 288 288 289 289 288 288 287 286 286 286
270 270 270 270 270 269 268 268 267 267 266 265 264 264 263 263 263 263 262 262 262 262 262 262 262 262 262 262 262 262 263 263 263 264 266 267 268 268 269 269 269 269 269 269 269 269 269 270 270 270 271 272 273 273 274 275 275 276 276 276 277 277 278 279 281 282 283 283 284 284 284 284 285 286 286 287 288 288 289 289 288 287 286 286 286
269 270 270 270 270 269 268 267 267 266 265 265 264 263 263 263 262 262 262 262 262 262 262 262 262 262 262 262 262 262 263 263 263 264 266 267 268 268 269 269 269 269 269 269 270 270 270 270 270 270 271 271 272 272 273 273 274 275 275 276 277 277 277 278 279 281 282 283 283 284 284 284 284 285 286 286 287 287 288 288 289 288 287 287 286
269 269 270 270 269 268 267 266 266 266 265 264 264 263 263 263 262 262 262 262 261 261 261 261 261 262 262 262 262 262 263 263 263 264 265 267 268 269 269 269 269 270 270 270 270 270 270 270 270 270 270 271 272 272 272 273 273 274 274 275 276 277 277 278 279 280 282 283 283 283 284 284 284 284 285 285 286 286 287 287 288 288 288 287 287
269 269 269 269 268 267 266 266 266 265 265 264 263 263 263 262 262 262 262 261 261 261 261 261 261 261 262 262 262 262 263 264 264 265 265 267 268 269 269 270 270 271 271 271 271 271 270 270 270 270 271 271 272 272 273 273 274 274 274 275 275 276 277 278 279 280 281 283 283 284 284 284 284 284 284 285 285 286 286 287 287 288 288 288 287
268 269 269 268 267 266 266 266 265 265 264 264 263 263 263 262 262 262 262 261 261 261 261 261 261 261 261 262 262 263 264 264 265 265 266 267 268 269 269 270 271 271 271 271 271 271 271 270 271 271 272 272 273 273 273 274 274 274 274 275 275 276 277 278 279 279 280 282 284 284 284 284 284 284 284 285 285 285 286 286 286 287 287 287 287
268 268 268 267 266 265 265 265 265 264 264 263 263 262 262 262 262 262 261 261 261 261 261 261 261 261 261 262 263 264 265 265 266 266 266 267 268 269 269 270 271 271 271 271 271 271 271 272 272 273 273 273 273 273 273 273 273 273 273 274 275 275 276 277 278 279 280 281 283 284 284 284 284 284 284 285 285 285 285 285 286 286 287 287 287
267 268 267 266 265 264 264 264 264 264 263 263 262 262 262 261 261 262 261 261 261 261 261 261 261 262 262 263 264 265 266 266 267 267 267 268 268 268 269 269 270 271 271 271 271 271 272 272 272 272 272 272 273 272 272 272 272 273 273 274 274 275 275 276 277 278 279 281 282 284 284 284 284 284 284 284 284 285 285 285 285 285 286 286 286
266 267 266 265 264 264 264 264 263 263 263 263 262 262 262 261 261 261 261 261 261 261 261 262 262 263 264 265 266 266 267 268 268 268 268 268 268 269 269 269 269 270 270 270 271 271 271 271 271 271 272 272 273 273 273 273 273 273 273 274 274 274 275 275 276 277 279 280 282 283 284 285 284 284 284 284 284 284 284 285 285 285 285 285 285
266 266 265 264 264 264 263 263 263 262 262 262 262 262 262 261 261 261 261 261 262 262 262 263 264 265 266 267 267 268 268 269 269 269 269 269 270 270 270 271 271 271 270 270 271 270 270 270 270 270 270 271 271 272 272 272 272 273 273 273 274 274 275 275 276 277 279 280 281 282 284 285 285 284 284 284 284 284 284 284 284 284 284 284 284
264 265 264 264 264 263 263 262 262 262 262 261 262 262 262 262 261 262 263 263 263 264 265 266 267 268 268 269 269 269 269 269 270 270 271 271 272 272 272 273 273 273 272 273 272 272 271 271 270 270 271 271 271 272 272 273 273 273 273 273 274 274 275 276 277 278 279 280 281 282 283 284 285 285 284 284 284 284 284 284 284 284 283 282 283
263 264 264 264 263 263 262 262 262 261 261 261 261 262 264 265 264 263 263 264 265 266 267 268 268 269 269 269 269 269 270 270 270 271 272 272 272 273 273 273 274 274 274 274 274 274 274 273 273 273 273 273 273 273 273 273 273 273 273 274 274 275 275 276 277 278 280 281 281 282 283 284 285 285 284 284 284 283 283 283 283 283 282 281 281
262 263 263 264 263 262 261 261 261 261 261 261 260 261 263 266 267 266 264 264 265 266 267 268 268 269 269 269 269 269 270 270 271 271 272 272 272 272 273 273 274 274 274 275 275 275 274 274 274 274 274 274 274 274 274 274 274 274 274 274 274 275 275 276 277 279 281 282 282 282 283 284 284 285 284 284 284 283 283 283 282 282 281 281 281
262 263 263 263 263 261 261 261 261 260 260 260 260 260 260 262 266 268 267 266 265 265 266 267 267 268 268 268 269 269 269 270 270 271 271 272 272 272 273 273 274 274 274 274 274 274 273 273 273 273 273 274 274 274 274 274 274 274 274 274 274 275 275 276 277 279 281 282 282 283 283 283 284 285 284 284 284 283 282 282 282 282 281 280 281
262 263 263 263 262 261 261 260 260 260 260 260 260 261 260 260 261 264 266 267 267 267 267 266 266 266 267 267 268 268 269 269 270 270 271 271 272 272 272 272 272 273 273 273 272 272 272 272 272 273 273 273 274 274 274 274 274 274 274 274 274 275 275 275 277 278 280 281 282 283 283 283 284 284 284 284 283 283 282 281 281 281 280 280 280
263 263 263 262 261 261 260 260 260 260 260 260 260 260 261 261 261 261 262 264 265 267 268 268 267 266 266 266 267 267 268 268 269 269 270 270 270 271 270 269 269 270 271 271 271 271 272 272 272 273 273 274 274 274 274 274 274 274 274 274 274 275 275 276 277 279 280 281 282 282 283 283 283 284 283 283 283 282 281 281 280 280 280 280 279
263 264 263 262 261 260 260 260 260 260 260 260 260 260 261 261 261 261 261 262 262 263 264 265 265 265 265 265 266 266 267 267 268 269 269 268 268 268 267 266 266 267 268 268 269 269 270 270 271 271 272 272 273 273 274 274 274 274 274 274 275 275 276 276 278 279 280 281 282 282 282 283 283 283 283 282 282 281 281 280 280 280 279 279 279
263 263 263 262 261 260 260 260 260 260 260 260 260 261 261 261 261 261 261 262 262 262 262 262 263 263 264 264 264 265 266 267 267 267 266 266 266 265 264 264 264 265 265 266 266 267 267 268 268 268 269 269 271 272 273 274 274 274 274 275 275 275 276 277 278 280 280 281 282 282 282 282 282 282 282 281 281 280 280 279 279 279 279 279 279
263 263 263 262 261 260 260 260 260 260 260 260 260 260 260 260 261 261 261 261 261 262 262 262 262 263 263 263 263 264 265 266 265 264 263 263 263 262 262 262 263 263 263 264 264 265 265 265 266 266 266 267 269 271 272 274 275 275 274 275 275 275 276 277 279 280 280 281 281 281 281 282 282 282 281 281 280 280 280 279 279 278 278 278 278
263 262 262 261 260 259 259 260 260 260 260 260 260 260 260 260 260 261 261 261 261 261 261 261 262 262 262 262 263 264 265 264 263 262 261 261 261 261 261 261 261 261 262 262 263 263 264 264 264 264 265 267 268 269 271 274 275 275 275 275 276 276 277 278 279 280 280 281 281 281 281 281 282 281 281 281 280 280 279 279 278 277 277 277 277
262 262 262 261 260 259 260 260 260 260 260 260 259 259 260 260 260 260 260 260 260 261 261 261 261 262 261 262 263 265 265 263 261 261 261 260 260 260 260 260 260 260 261 261 261 262 262 262 263 263 264 266 267 268 270 272 274 275 276 276 276 277 278 278 279 280 280 280 281 281 281 281 281 281 281 280 280 279 278 277 277 277 276 276 276
262 262 262 261 260 259 260 260 260 260 259 259 259 259 259 259 260 260 260 260 260 260 260 261 261 261 261 262 263 265 264 262 260 260 260 260 260 260 260 260 260 260 260 260 260 261 261 262 262 263 263 265 266 267 268 269 271 273 275 276 277 277 278 278 278 279 279 280 280 280 280 280 280 280 279 279 278 278 277 276 276 276 276 275 275
262 262 262 261 260 260 260 260 260 260 259 259 259 259 259 259 259 259 259 259 259 260 260 260 261 261 261 262 264 265 263 261 260 260 260 260 260 260 260 260 260 260 260 260 260 260 261 261 262 262 263 263 264 265 266 267 268 270 272 273 274 275 276 276 277 277 278 278 279 279 279 279 278 278 278 277 277 277 276 275 275 275 275 275 274
262 262 261 261 260 260 260 260 260 259 259 259 259 259 259 259 259 259 259 259 259 259 260 260 261 261 261 262 263 263 262 261 260 260 260 260 260 260 260 260 260 260 260 260 261 261 261 261 262 262 262 263 264 264 265 266 267 268 270 271 272 273 274 274 275 275 276 276 276 277 277 277 276 276 276 276 275 275 275 274 274 274 274 274 273
261 261 261 260 260 260 260 260 259 259 259 258 258 258 259 259 259 259 259 259 259 259 259 260 260 261 261 261 261 261 261 260 260 260 260 260 260 260 260 260 260 260 261 261 261 261 261 262 262 262 263 263 264 264 265 266 267 268 269 270 271 272 272 273 273 273 274 274 274 274 275 275 275 275 275 274 274 274 273 273 273 273 273 272 272
261 261 261 261 261 261 261 260 259 259 259 258 258 258 258 259 259 259 259 259 259 259 259 259 260 260 260 261 261 260 260 260 260 260 260 260 260 260 260 260 260 261 261 261 261 262 262 262 263 263 263 264 264 265 265 266 267 268 268 269 269 270 270 271 271 272 273 273 273 273 273 273 273 273 273 273 273 273 272 272 272 272 272 272 271
261 261 261 261 261 261 261 260 260 259 259 258 258 258 259 259 259 259 259 259 259 259 259 259 259 259 259 260 260 260 260 260 260 260 260 260 260 260 260 260 260 261 261 262 262 262 262 262 263 263 264 264 264 265 265 266 266 267 267 268 268 269 269 269 270 271 271 272 272 272 272 272 272 272 272 272 272 272 271 271 271 271 271 271 271
261 261 261 261 261 261 261 261 260 260 259 258 258 258 259 259 259 259 259 259 259 259 259 259 259 259 259 259 260 260 260 260 260 260 260 260 260 260 261 261 261 261 262 262 262 263 263 263 263 264 264 264 265 265 265 265 266 266 266 267 268 268 268 269 269 270 271 271 271 271 271 271 271 271 271 271 271 271 270 270 270 271 270 270 270
261 261 261 261 261 261 261 261 260 260 260 259 258 259 259 259 259 259 259 259 259 259 259 259 259 259 260 260 260 260 260 260 260 260 260 261 261 261 261 262 262 262 263 263 263 263 263 263 264 264 264 265 265 265 265 265 265 266 266 266 267 268 268 269 269 269 270 270 270 271 270 270 270 270 270 270 270 270 270 270 270 270 270 270 270
261 261 261 261 261 261 261 260 260 260 260 259 259 259 260 259 259 260 260 259 259 259 259 259 260 260 260 260 260 260 260 260 260 261 261 261 262 262 262 262 262 263 263 263 263 264 264 264 264 264 264 265 265 266 266 266 266 266 266 266 266 267 268 268 269 269 269 269 270 270 270 270 269 269 269 269 269 269 269 269 269 269 269 270 270
261 261 261 261 261 261 260 260 260 259 259 259 259 260 260 259 260 260 260 260 259 259 259 260 260 260 260 260 261 261 261 261 261 261 261 262 262 262 262 262 263 263 263 263 264 264 264 264 264 264 264 265 265 265 266 266 266 266 266 266 266 267 267 268 268 268 269 269 269 269 269 269 269 269 269 269 269 269 269 269 269 269 269 269 270
261 261 261 261 261 261 260 260 259 259 259 259 259 260 260 260 260 260 260 260 260 260 260 260 260 260 260 260 260 261 261 261 261 261 261 261 262 262 262 262 263 263 263 263 264 264 264 264 264 263 264 264 265 265 265 266 266 266 266 266 266 266 267 267 268 268 268 268 268 268 268 268 268 268 268 268 268 268 268 268 268 269 269 269 269
261 261 261 261 261 261 260 260 260 260 259 259 259 260 260 260 260 260 260 259 259 259 260 260 260 260 260 260 260 260 261 261 261 261 261 261 261 262 262 262 262 263 263 263 263 264 264 264 264 263 263 263 264 264 265 265 266 266 266 266 266 266 266 267 267 267 268 268 268 268 268 268 268 268 268 268 268 268 268 268 268 268 268 268 268
Wind_Speed
11 11 11 10 12 12 12 15 19 20 22 23 23 24 25 25 26 27 29 30 30 31 32 32 33 33 33 33 33 33 33 33 32 32 32 31 28 26 25 25 26 27 28 29 28 26 26 26 26 26 26 27 28 28 28 28 28 28 28 29 31 32 31 26 18 16 21 25 25 26 28 30 34 38 39 39 39 40 43 45 45 46 45 45 45
9 9 9 9 10 11 11 13 17 21 24 25 25 25 26 25 25 26 28 29 29 29 30 31 31 32 33 34 35 35 35 35 34 33 33 33 33 31 29 27 27 27 27 28 28 28 29 28 28 27 26 27 29 29 29 29 28 29 29 28 30 31 30 29 25 19 20 25 26 27 29 30 34 37 38 39 40 40 42 44 46 47 47 47 46
6 7 8 9 10 11 13 15 19 23 26 27 28 27 27 27 26 27 28 29 29 29 29 30 30 31 32 34 35 36 37 37 37 36 35 34 34 34 33 31 30 29 28 28 28 28 29 30 30 29 27 27 29 29 29 29 29 30 31 30 30 31 30 30 29 25 23 24 25 28 30 31 34 36 37 39 40 40 43 45 45 47 47 47 47
4 6 8 10 11 13 16 18 20 23 25 27 28 28 27 27 27 27 28 29 30 30 31 31 32 32 32 33 34 35 37 38 39 39 38 36 35 34 34 34 33 32 31 30 29 28 29 30 31 30 29 28 30 30 29 29 30 30 31 31 30 31 30 30 31 31 27 24 24 26 29 32 35 35 35 37 39 41 43 44 44 46 47 47 47
4 6 9 11 13 15 16 18 20 22 24 27 28 29 28 28 28 28 28 29 31 31 32 33 33 33 33 34 34 35 36 36 37 39 39 38 37 36 35 34 33 33 33 33 32 30 29 31 32 31 30 30 30 31 30 29 29 30 31 32 31 31 31 30 32 33 31 28 26 25 26 30 33 33 34 35 37 38 40 41 42 43 44 44 45
5 7 10 12 13 14 16 18 20 23 26 29 30 31 31 30 30 30 30 31 32 32 33 33 33 34 35 35 34 35 36 35 35 36 37 38 38 38 38 37 35 34 34 34 34 33 31 32 32 32 32 32 32 33 32 30 30 30 31 32 32 31 31 31 31 31 32 32 29 26 26 28 31 32 32 33 35 36 37 38 39 39 39 40 42
6 8 9 11 12 14 16 19 22 25 28 31 32 32 32 32 32 33 32 33 33 34 34 34 34 34 35 35 35 35 35 35 35 34 34 33 34 35 37 38 39 38 37 36 35 34 33 33 33 33 32 32 33 34 34 32 31 31 31 31 31 30 30 31 30 30 31 31 29 27 26 27 30 32 32 31 33 37 37 34 32 35 38 39 42
7 7 9 10 12 15 18 21 23 26 29 32 33 33 33 33 33 33 33 33 34 34 35 36 37 37 37 36 36 35 34 34 34 32 31 30 30 32 33 35 36 38 39 40 39 37 35 35 34 34 33 33 33 34 35 34 33 32 32 31 30 29 30 30 29 28 29 28 27 27 25 25 27 30 29 26 27 32 34 30 28 32 38 41 43
6 7 8 11 14 17 20 23 25 27 29 31 32 32 32 32 33 33 34 34 35 35 36 37 37 38 38 37 37 36 34 34 33 30 29 29 30 30 31 31 32 34 36 38 40 40 40 38 36 36 35 34 34 35 35 35 34 34 35 33 31 30 29 30 28 27 26 25 26 26 23 22 25 27 26 26 29 30 28 29 30 32 33 35 40
6 8 11 14 17 20 23 25 27 28 29 30 30 30 30 31 33 34 35 36 36 37 37 36 35 35 36 36 37 36 36 35 33 29 28 28 30 30 31 32 32 33 34 36 37 39 39 39 39 38 37 37 37 37 37 37 36 37 38 37 34 32 30 29 28 27 25 23 24 24 19 19 24 26 27 31 34 30 27 29 31 28 25 25 30
9 11 14 17 20 22 25 26 27 28 29 29 29 30 31 33 34 35 37 37 37 36 36 35 35 34 33 34 35 36 36 36 33 30 30 30 30 31 32 33 33 33 34 34 36 37 38 38 39 40 40 40 39 39 38 38 38 38 39 39 38 36 34 32 31 29 27 24 26 25 21 21 27 28 28 31 31 30 31 31 29 26 23 19 18
12 14 16 18 20 22 24 25 26 27 27 28 30 31 33 35 36 37 37 37 36 35 34 34 35 34 33 35 36 36 37 35 33 32 32 32 31 31 32 33 34 35 35 35 37 38 38 39 39 40 42 42 42 41 40 39 39 38 39 39 40 40 39 38 36 34 30 27 27 27 25 26 29 28 27 28 29 30 32 31 30 30 27 23 21
14 15 16 18 19 20 22 23 24 25 26 28 30 32 33 35 35 35 36 35 34 35 35 35 35 34 34 35 36 38 38 35 33 33 33 33 33 33 33 35 36 37 38 38 38 38 39 39 39 41 41 41 41 41 40 40 40 40 39 39 39 41 42 43 42 41 38 34 31 31 33 31 30 29 29 28 28 30 30 30 32 32 28 28 31
13 14 15 17 18 19 21 22 24 25 27 28 30 32 32 33 33 32 33 34 34 35 35 35 34 33 32 33 36 38 37 34 32 33 33 33 33 33 33 35 36 37 38 38 38 39 40 39 39 41 41 41 42 42 42 42 41 40 40 39 39 40 41 42 42 42 43 41 38 39 41 38 35 35 32 27 28 31 31 32 33 33 33 34 36
13 14 15 16 17 19 20 22 24 26 27 29 30 31 31 31 32 32 32 33 33 33 34 34 34 33 33 33 36 39 37 33 32 33 32 32 32 32 31 32 33 34 35 35 36 37 38 38 39 39 41 41 41 39 40 41 40 39 39 39 40 41 41 42 43 42 43 42 42 44 47 46 43 41 37 30 30 33 33 35 36 35 36 36 34
12 13 14 15 16 18 20 22 24 25 27 28 29 30 31 30 30 31 32 32 32 32 32 32 33 35 35 35 36 39 37 32 30 31 31 31 31 31 30 31 32 33 34 35 34 34 35 37 38 40 42 43 42 39 38 39 40 41 41 41 41 40 42 43 45 46 46 45 45 45 47 49 47 45 42 36 33 33 32 33 33 31 28 25 24
11 11 13 14 16 18 19 21 23 25 26 27 28 29 29 30 30 30 31 32 32 32 33 33 33 34 36 36 36 38 37 32 30 31 31 31 31 31 30 31 32 33 34 34 33 33 33 34 35 37 39 39 38 36 35 36 38 40 41 41 42 42 44 45 45 46 48 48 49 47 48 50 49 48 47 43 38 35 30 27 27 27 23 16 15
10 12 13 15 17 18 19 21 22 24 25 26 27 28 28 30 30 29 29 31 32 32 33 35 35 34 35 35 34 34 35 33 30 31 31 30 30 31 30 31 31 32 32 32 30 30 30 30 30 32 34 35 35 35 34 34 36 37 37 38 38 38 40 43 43 43 43 44 46 45 46 49 49 47 46 45 42 38 34 30 29 28 23 18 16
11 13 15 16 17 18 19 20 21 23 24 25 26 28 29 29 30 29 28 30 32 33 33 34 35 34 34 35 33 32 34 34 31 30 30 29 29 30 30 31 31 31 31 32 32 32 33 33 32 32 34 35 35 35 34 34 35 36 36 36 36 37 39 39 39 39 38 39 40 42 43 46 47 46 44 43 43 41 39 38 36 30 26 24 24
12 14 15 16 18 18 19 20 21 22 23 25 26 27 28 29 29 29 30 30 31 32 33 33 35 35 34 34 33 32 33 34 31 29 29 28 29 30 30 30 31 31 32 33 34 34 34 33 31 29 30 33 34 34 34 34 34 35 35 34 35 40 44 42 40 39 38 38 39 40 41 43 43 42 41 41 42 41 40 41 39 36 32 29 27
12 14 15 17 18 19 19 19 20 21 23 25 27 28 28 28 29 30 30 30 31 32 32 33 33 35 35 33 33 32 32 32 31 29 28 28 28 29 30 31 32 33 34 33 32 31 31 31 31 31 32 35 37 38 38 37 36 37 37 37 38 41 44 43 42 42 41 41 40 40 40 41 41 40 38 38 39 40 41 41 41 40 38 35 30
13 14 16 17 18 19 19 19 20 22 23 24 27 29 29 28 28 30 30 30 30 31 32 32 32 33 33 32 32 32 31 31 31 29 28 29 29 29 31 32 32 34 35 33 31 32 34 35 37 37 37 38 39 39 38 38 37 38 40 41 42 43 44 43 42 41 39 39 40 38 38 38 39 38 36 36 38 39 40 41 42 43 42 42 39
13 14 16 18 19 19 20 20 21 22 23 24 26 29 30 29 29 30 30 30 30 30 30 31 30 31 31 31 32 32 32 32 32 30 29 30 30 31 32 32 31 33 35 35 35 37 39 39 39 38 37 37 39 39 39 39 39 39 41 43 44 45 44 42 40 39 38 38 37 36 36 36 36 35 35 36 37 39 39 40 43 43 43 44 44
13 15 17 18 19 19 20 21 21 21 22 24 26 28 30 29 29 30 29 28 28 29 29 30 29 29 30 31 33 34 34 34 34 33 31 30 31 32 33 33 32 33 35 38 39 40 40 40 40 39 38 38 39 40 40 40 40 40 41 43 44 44 43 40 37 37 37 36 34 33 34 35 35 35 36 37 38 39 40 39 39 40 40 40 41
14 15 17 18 19 20 21 21 21 22 22 24 25 28 29 29 29 30 29 27 27 28 29 29 29 29 29 30 32 34 35 35 35 35 32 31 32 33 33 34 34 34 36 38 39 39 40 40 41 40 40 40 41 40 40 39 37 37 39 41 41 40 40 39 37 35 34 34 35 34 34 36 37 38 39 39 38 37 35 34 34 35 35 36 37
14 16 17 18 19 20 21 22 22 23 23 24 25 27 27 27 28 30 29 28 27 28 29 29 29 28 28 29 31 34 35 35 34 34 34 34 35 36 35 35 36 37 37 38 38 40 41 41 42 42 42 41 39 37 37 37 36 36 38 39 40 39 39 39 38 35 33 34 37 37 36 36 37 38 38 36 35 34 33 32 31 31 32 32 31
14 16 18 19 20 20 21 23 23 24 25 25 26 27 27 25 26 28 29 28 27 27 27 27 28 27 27 29 31 32 33 34 33 32 33 35 36 37 36 36 37 38 37 38 40 42 43 42 41 42 43 41 38 38 38 38 38 38 38 38 38 38 39 40 40 39 37 37 38 39 37 36 35 35 35 33 33 34 34 33 30 29 31 31 27
14 16 17 19 20 20 21 22 24 24 26 26 26 28 28 26 25 27 29 29 28 28 28 27 28 29 29 30 31 31 31 32 33 33 34 35 36 35 33 33 34 35 35 37 40 41 41 41 40 39 39 38 37 37 36 36 36 36 36 38 38 38 38 38 39 42 41 40 39 39 36 33 31 32 32 31 32 34 33 33 31 30 30 28 23
14 16 17 19 20 20 21 22 23 24 26 26 27 28 28 26 24 27 30 29 28 29 30 30 31 32 31 31 31 31 30 32 34 35 36 36 37 38 36 34 34 33 32 35 36 34 31 32 32 31 30 30 30 31 32 32 34 35 35 37 37 36 35 34 35 38 38 36 36 37 35 31 28 29 29 29 31 32 32 31 31 29 27 25 22
14 16 17 19 20 21 22 23 23 23 24 25 26 29 30 27 23 23 27 28 27 27 29 31 32 33 32 32 31 30 32 34 35 36 38 38 38 38 38 38 37 36 35 36 34 28 24 24 24 25 25 25 25 26 28 29 30 31 31 33 33 33 33 33 33 35 35 34 34 34 32 29 26 26 26 26 28 29 30 31 31 28 25 23 21
14 16 17 19 20 21 21 22 22 22 23 23 24 26 30 32 30 25 23 24 25 27 28 29 29 29 30 31 32 32 33 35 35 35 37 37 38 38 38 39 38 37 36 34 28 24 22 22 22 24 26 26 26 28 29 29 28 27 27 29 32 32 31 32 32 33 31 32 34 33 31 28 25 24 24 25 25 26 26 28 28 26 25 24 21
14 16 17 19 20 20 20 21 22 22 22 23 23 23 25 29 33 34 31 27 26 26 26 26 25 26 28 30 32 33 33 34 35 35 35 36 37 38 38 37 35 33 32 28 22 20 21 22 22 25 27 27 28 31 31 29 29 28 27 26 29 31 31 31 31 31 27 24 26 28 28 28 27 25 25 26 25 24 24 24 24 24 23 22 22
14 16 17 18 19 20 20 20 20 21 21 22 23 23 23 23 26 32 37 38 36 31 26 22 22 24 27 29 30 31 33 33 34 34 34 35 35 35 35 33 30 28 25 22 19 19 22 23 23 25 26 27 28 30 30 29 28 26 25 24 26 29 32 33 31 29 26 23 22 22 23 25 25 24 24 25 25 23 22 23 23 23 21 20 20
14 15 16 17 17 18 19 19 20 20 21 21 21 22 23 22 22 25 29 33 37 38 36 34 30 29 30 30 30 30 32 33 33 33 34 34 33 32 30 28 26 24 22 20 18 18 20 21 23 25 26 29 30 30 29 29 26 24 24 24 25 28 31 30 28 27 26 24 23 23 23 23 24 23 21 22 23 23 22 23 23 22 20 19 19
14 15 15 15 15 17 18 18 19 19 20 21 21 21 22 23 23 23 23 23 26 29 34 38 39 37 33 31 32 32 32 32 33 33 32 31 30 29 26 23 22 23 23 22 21 20 20 20 22 24 26 29 30 30 29 28 26 23 23 23 24 25 26 26 25 26 25 23 22 22 23 23 23 23 22 21 21 20 19 21 22 22 22 21 20
14 14 14 14 15 16 17 17 18 18 18 19 20 21 22 22 22 22 23 22 22 24 27 32 36 37 32 29 30 32 32 32 31 30 28 28 27 25 22 20 20 21 21 22 22 22 22 22 23 25 28 29 30 30 30 29 26 23 22 23 23 23 24 24 25 26 25 22 20 18 17 16 17 19 19 20 20 19 18 18 20 21 22 23 21
13 13 14 14 14 15 16 16 16 16 16 17 19 20 22 22 21 21 22 22 22 23 25 28 31 33 33 33 34 33 33 33 31 28 25 25 24 22 20 19 19 20 20 21 22 22 23 24 25 28 31 30 30 31 33 29 24 22 21 22 22 23 24 25 25 25 24 21 19 18 16 14 14 15 16 16 17 19 20 20 21 21 23 23 20
12 12 13 13 13 14 15 15 16 16 16 17 18 19 20 21 21 21 21 21 22 22 24 25 26 26 29 33 35 33 32 34 34 33 31 29 27 25 23 22 20 20 20 21 21 22 24 26 29 31 31 30 30 32 33 29 23 21 22 22 22 23 23 24 25 25 24 22 19 18 18 18 18 18 19 18 18 19 20 21 21 20 19 19 18
12 12 12 11 11 12 13 14 15 16 16 17 17 18 19 20 20 20 21 22 22 22 23 24 24 25 27 30 32 31 31 31 32 33 33 32 30 28 27 25 23 23 22 23 23 24 25 27 30 31 29 29 29 31 31 29 25 21 21 21 22 23 23 23 23 24 23 21 19 18 18 19 19 20 21 21 21 20 20 20 21 20 19 19 19
12 12 11 10 10 11 12 13 14 14 16 17 18 18 18 18 18 19 21 21 22 22 22 23 24 26 27 28 28 27 27 26 27 27 28 29 30 29 28 26 25 25 25 25 26 26 26 27 30 31 31 30 29 29 29 29 28 25 21 18 18 18 19 19 20 20 19 18 18 17 18 18 18 18 19 19 19 20 20 19 20 21 20 19 19
11 11 11 10 10 11 11 12 12 13 15 16 16 17 18 18 18 19 20 20 21 22 23 23 24 26 26 25 24 24 24 23 24 25 25 26 27 27 27 27 27 27 27 27 27 27 28 28 29 32 33 32 32 32 31 29 28 27 24 21 19 18 18 18 17 17 16 16 15 14 14 15 15 15 16 16 16 17 17 17 17 17 16 16 16
11 10 10 10 10 10 11 11 11 12 14 15 15 16 17 17 18 18 19 19 20 20 21 23 25 25 25 23 22 22 23 23 24 25 25 25 26 27 27 27 28 28 28 28 28 28 29 29 29 30 31 32 32 32 31 30 30 29 26 24 23 21 19 17 15 14 12 10 9 8 7 8 10 10 11 12 13 14 15 15 15 15 15 15 16
10 10 9 9 9 9 9 10 11 12 13 13 14 15 15 15 16 17 18 18 18 19 20 22 24 25 25 24 23 23 25 25 25 25 26 26 27 27 28 28 29 29 28 28 28 28 28 28 29 29 29 29 29 29 28 28 29 28 27 25 23 21 18 16 13 11 9 6 4 2 1 3 6 8 9 11 13 14 14 14 15 15 15 16 17
9 9 9 9 9 8 8 8 9 11 11 12 12 13 13 13 14 15 16 17 17 18 19 20 22 24 24 25 25 25 25 26 25 25 26 27 27 28 29 29 30 30 29 29 29 29 28 28 28 30 30 29 28 28 27 27 26 26 24 23 21 20 18 16 13 11 7 4 2 2 3 4 5 7 9 11 13 14 15 15 16 16 16 16 17
9 9 9 9 8 8 8 8 9 10 10 11 12 12 11 11 12 14 15 16 17 18 19 19 21 22 23 24 25 25 25 25 25 25 26 27 28 29 29 30 30 30 30 29 30 30 29 28 28 29 31 31 31 29 28 27 26 25 23 21 19 18 17 15 12 10 7 3 2 4 6 6 7 8 10 11 13 14 14 15 15 15 16 16 16
8 8 8 8 8 7 7 7 8 9 9 10 12 12 11 12 12 13 14 15 16 17 18 19 20 21 21 22 23 24 24 25 25 26 26 27 28 29 29 30 30 30 29 29 29 29 29 29 29 29 30 31 32 31 30 27 26 24 24 22 20 18 16 14 12 9 6 4 3 5 7 9 9 10 11 12 13 13 14 14 14 14 14 15 15
8 8 8 7 7 7 7 7 8 8 9 10 11 11 11 12 12 12 13 14 15 16 18 19 19 20 21 22 22 23 23 24 24 25 26 27 28 29 29 30 30 30 29 29 28 28 29 29 29 29 30 30 30 31 31 30 28 26 24 23 22 19 17 14 12 10 7 5 4 5 8 10 12 12 12 13 14 15 15 14 14 14 14 14 14
8 8 7 7 7 6 6 7 7 8 9 9 10 10 11 12 12 13 13 14 15 16 17 18 19 20 21 21 22 22 23 23 24 25 26 26 27 28 28 29 29 29 29 29 28 28 28 28 28 29 30 30 30 30 31 31 31 29 26 24 21 19 17 15 12 10 8 6 6 7 9 12 13 14 14 15 16 16 16 16 15 16 16 15 15
8 8 8 7 7 6 6 6 7 7 8 9 9 10 11 12 12 13 13 14 15 16 16 17 18 19 20 21 21 22 23 23 24 25 25 26 27 27 27 27 28 28 28 28 28 27 27 27 27 28 29 29 29 29 29 30 31 31 29 25 22 19 17 15 13 10 8 7 8 9 11 13 15 15 16 17 17 17 18 18 17 17 18 17 17
9 9 8 7 7 6 6 6 6 7 7 8 9 10 11 12 13 13 14 15 16 16 16 17 17 18 19 20 21 21 22 23 23 24 25 25 26 26 27 27 27 27 27 27 26 26 26 26 26 27 28 28 29 29 28 28 29 28 27 25 23 20 18 16 13 11 10 9 10 11 13 15 17 17 17 18 19 19 19 19 19 19 19 19 18
9 9 8 8 7 7 7 7 7 7 7 8 9 10 11 12 13 13 14 15 16 16 16 17 17 17 18 18 19 20 21 22 22 23 23 24 24 25 26 26 26 26 26 26 26 26 25 25 25 26 27 27 28 28 28 28 27 26 24 24 23 21 19 17 14 13 11 10 11 12 14 16 17 18 19 19 20 20 20 20 20 20 20 20 19
Wind_Direction
71 67 63 57 49 44 35 24 18 13 7 4 360 358 356 354 352 349 347 347 346 343 342 341 340 338 337 336 335 333 332 331 331 330 328 328 326 324 323 322 320 320 321 320 320 319 315 311 307 303 302 300 296 295 293 292 290 285 280 273 266 262 258 252 256 268 265 259 257 256 254 252 250 249 247 246 244 242 242 244 244 242 241 241 241
73 68 64 58 46 39 29 14 9 5 0 357 354 351 349 348 346 342 340 340 339 337 335 334 333 332 331 330 329 328 327 326 326 325 324 322 322 321 321 319 316 315 315 315 315 316 315 312 310 308 306 302 298 297 294 292 291 286 282 276 269 265 261 255 256 265 269 264 259 256 254 249 248 248 246 244 245 244 242 242 242 242 242 242 241
60 51 43 33 23 16 8 360 356 354 351 349 347 345 342 340 339 337 334 333 332 331 329 328 327 326 324 324 323 322 322 321 321 320 319 318 317 316 316 316 314 312 310 309 310 310 309 308 307 308 309 305 300 298 296 293 290 286 282 278 272 269 265 258 256 260 267 269 262 256 254 250 248 248 247 246 247 244 242 241 241 241 241 240 240
29 20 13 6 359 353 350 347 345 343 342 342 341 339 336 333 332 331 329 327 327 326 325 324 323 322 320 318 318 317 316 316 316 314 314 314 313 312 312 312 311 310 307 306 306 305 303 301 301 303 304 303 300 298 296 293 289 286 283 279 274 271 268 262 258 257 263 268 263 256 255 255 253 252 248 245 242 239 238 238 237 237 238 237 237
352 354 349 346 343 341 339 337 335 334 335 336 336 334 332 330 329 328 327 325 324 323 322 321 320 318 316 315 314 312 312 312 311 309 309 310 310 309 309 309 308 307 305 304 304 302 299 296 295 297 297 296 296 296 294 292 289 286 282 279 276 274 271 266 261 258 258 261 263 260 256 255 255 253 248 241 237 235 235 236 235 234 234 235 235
321 331 332 332 331 330 329 327 327 329 330 332 332 331 329 328 328 328 327 325 323 322 320 319 318 316 314 312 311 309 309 308 306 305 306 307 308 308 308 308 307 305 303 302 301 300 297 294 292 291 290 289 289 291 291 289 287 284 280 279 277 275 272 268 264 260 258 259 262 260 255 251 250 251 249 242 235 232 231 232 234 233 233 232 233
306 317 318 319 319 319 321 322 323 324 325 326 326 325 324 324 324 324 324 322 321 320 319 317 315 314 311 310 309 307 306 304 302 302 302 303 304 305 306 307 306 305 303 301 300 298 296 293 291 289 287 285 284 286 286 286 284 282 280 278 276 274 271 269 265 261 258 260 260 258 254 250 246 248 250 246 238 233 229 225 227 229 230 231 232
292 300 301 306 312 315 317 319 319 320 321 321 320 320 320 321 321 320 320 319 317 316 315 314 312 311 310 309 307 306 304 302 301 301 301 302 301 301 301 301 301 302 302 301 300 299 296 293 290 288 285 283 282 282 282 281 281 279 279 277 274 271 269 268 266 261 258 259 260 258 255 249 243 242 244 239 232 232 228 221 222 225 225 228 231
280 290 299 309 315 316 317 318 319 320 320 319 319 319 319 319 318 317 316 315 314 313 312 311 310 310 309 308 307 306 304 302 302 303 304 304 303 301 299 297 297 296 297 297 297 297 296 294 291 288 286 284 282 281 280 278 276 275 275 275 272 269 267 264 263 260 258 258 259 259 254 247 239 233 231 226 225 231 230 224 226 229 225 227 231
293 306 314 316 317 316 316 316 317 318 319 319 319 319 318 317 316 315 314 313 313 312 311 311 310 309 308 308 307 305 303 302 303 305 306 305 304 302 300 298 296 294 292 292 291 291 292 292 292 290 289 287 285 282 280 278 275 273 273 272 269 265 264 262 260 257 256 255 257 256 252 248 242 232 227 230 230 231 229 222 225 229 223 226 235
309 315 316 315 314 314 313 313 314 315 317 318 318 318 316 316 315 314 314 313 313 312 311 310 309 308 308 307 305 304 302 302 304 307 307 305 303 302 300 298 295 292 290 288 288 288 288 289 290 290 290 290 288 286 284 281 277 274 273 272 269 264 260 258 258 257 254 253 255 255 249 249 249 240 233 233 230 227 227 224 221 221 214 217 234
311 314 314 312 311 311 311 312 313 315 317 317 316 316 315 315 315 315 314 313 313 312 310 309 308 308 308 306 304 303 301 303 306 308 306 304 303 302 299 296 293 290 288 286 285 285 286 286 286 286 287 288 288 288 287 284 281 278 275 273 271 268 263 259 257 255 253 252 254 253 249 249 253 247 237 233 227 225 227 225 221 219 216 219 228
310 311 312 310 309 311 312 314 315 315 316 315 315 315 315 314 315 314 313 312 311 310 309 309 308 309 309 307 305 303 303 305 308 307 305 304 303 301 298 294 291 288 287 285 284 284 284 284 284 283 283 283 284 286 286 286 285 282 280 276 272 269 266 262 259 256 253 252 252 254 252 250 252 251 245 236 228 223 222 222 222 222 221 224 229
311 312 312 311 312 313 314 314 315 314 315 315 315 315 315 314 314 313 311 311 311 310 310 310 310 310 310 308 306 304 304 308 310 307 306 305 303 301 297 293 291 289 286 285 284 284 283 282 282 281 281 280 281 282 283 285 285 284 282 278 274 270 267 265 262 259 255 251 250 253 254 253 251 252 251 244 232 226 222 222 223 223 225 231 234
313 312 311 311 312 314 315 314 314 315 316 317 317 316 316 314 313 313 312 311 310 310 310 310 310 310 309 308 306 304 306 310 310 308 307 306 304 301 298 295 292 290 288 287 286 284 283 282 281 281 281 281 280 279 280 282 283 284 283 279 275 271 268 266 264 262 259 254 250 251 253 254 253 253 253 248 241 238 235 232 232 230 230 236 238
312 310 308 311 312 314 314 314 315 317 318 318 318 317 316 314 313 313 312 310 309 309 309 309 309 309 308 308 306 305 307 310 309 308 307 306 305 303 299 295 292 290 289 288 287 285 284 283 283 283 282 281 280 279 279 279 279 280 279 278 276 273 269 267 265 264 263 260 257 255 255 256 255 254 253 249 245 245 243 238 235 231 229 233 237
310 306 307 312 314 315 316 316 317 319 320 319 317 316 314 312 312 312 310 309 308 308 309 308 308 307 307 307 306 306 307 309 308 306 306 305 304 302 298 295 292 290 289 289 288 287 286 285 286 285 283 282 282 281 279 278 277 276 275 274 273 271 268 267 266 264 263 263 262 260 259 259 258 256 255 252 248 245 239 232 226 222 222 226 235
304 305 311 315 316 317 318 318 319 320 319 317 315 313 312 310 310 310 308 307 307 308 309 308 307 307 306 305 306 305 305 306 306 305 305 304 302 300 297 294 291 290 291 291 290 290 290 290 290 290 288 287 287 286 283 280 278 277 277 277 274 271 268 266 265 264 262 263 263 261 259 259 258 256 254 252 250 243 235 231 228 222 219 221 231
303 308 314 317 317 319 320 320 320 320 318 316 313 311 310 309 309 309 307 306 306 307 308 307 306 305 305 304 304 303 303 305 306 304 304 303 301 299 296 293 291 291 291 291 292 292 292 292 291 290 289 289 289 288 285 281 277 273 273 275 275 272 270 268 266 265 263 261 260 259 258 257 256 255 252 249 248 243 237 235 233 226 221 224 230
306 312 316 318 319 320 321 321 321 319 317 315 314 311 310 309 309 309 308 307 307 307 307 306 304 304 304 304 304 304 304 305 305 304 303 303 301 299 296 293 291 291 290 290 290 290 290 291 291 290 291 291 291 291 289 285 281 276 270 266 265 266 268 269 268 267 265 262 259 257 256 257 256 254 250 247 245 242 238 236 234 228 225 227 228
309 314 317 320 320 321 322 322 322 320 319 317 314 312 311 310 309 310 310 309 309 307 306 305 303 303 303 304 303 304 304 304 303 302 301 301 301 299 295 291 290 289 288 286 286 288 289 291 292 292 292 291 290 289 288 285 283 281 275 268 264 266 268 268 267 265 262 260 258 256 254 254 254 252 249 245 243 240 237 235 233 230 228 227 227
312 316 318 320 320 321 324 324 324 322 322 319 315 313 313 313 311 311 312 310 309 306 305 304 302 300 302 303 303 304 305 305 303 300 299 299 299 297 294 291 290 289 288 286 285 286 288 288 288 288 287 287 286 286 284 282 280 279 276 274 272 271 268 266 266 265 261 255 252 250 249 248 248 248 245 242 241 240 237 234 233 231 230 229 228
313 317 319 319 321 323 325 326 326 324 323 321 316 313 314 313 313 314 313 311 308 305 303 303 300 299 300 302 303 304 305 305 303 300 296 296 296 295 293 292 291 290 288 287 287 287 287 287 286 285 282 281 281 281 282 281 280 278 277 276 275 274 271 267 263 263 262 256 247 242 242 241 241 241 241 239 239 239 237 235 234 233 231 232 231
313 317 318 319 321 324 326 327 326 325 323 322 317 313 313 314 315 316 314 310 305 302 301 300 298 297 299 300 303 305 305 305 304 301 296 294 294 294 292 291 291 290 287 286 286 286 286 285 284 282 281 281 282 283 284 285 284 282 280 278 276 274 274 271 264 258 259 259 250 240 236 236 236 236 237 237 238 239 238 236 236 234 233 234 234
314 317 318 320 323 325 326 327 326 325 324 322 316 312 312 314 315 315 313 308 304 300 299 298 297 296 296 297 300 304 306 305 303 302 299 295 293 291 288 286 287 286 284 283 284 284 284 284 285 286 288 288 289 290 289 287 284 282 280 279 277 274 272 273 270 262 254 253 253 245 236 233 234 235 236 237 237 237 236 235 235 235 234 235 236
314 317 319 322 324 326 326 326 326 325 323 320 315 312 312 312 314 313 309 305 302 298 296 296 295 295 295 296 298 302 304 303 301 302 302 299 295 292 287 283 282 281 279 279 280 280 280 282 286 288 289 289 288 287 285 283 280 279 278 277 276 275 274 275 275 269 259 253 253 250 241 235 234 234 236 235 233 232 231 229 230 230 230 230 231
314 316 320 323 325 327 327 325 324 323 321 319 317 314 313 313 312 309 306 303 300 296 293 294 294 292 293 295 298 300 302 302 302 303 302 298 294 291 287 283 281 278 276 275 276 277 277 278 280 281 282 284 283 282 282 281 279 278 277 276 275 274 274 273 271 269 263 255 252 252 245 236 231 231 230 228 227 228 227 225 223 223 223 223 223
313 316 320 323 326 328 327 324 322 321 319 319 317 315 314 314 311 307 304 301 297 292 290 290 292 294 296 298 300 301 301 302 304 303 301 297 295 294 291 288 284 279 275 276 275 274 273 273 272 273 274 275 276 275 275 274 273 272 273 274 274 272 273 273 271 270 263 253 249 251 246 235 226 224 223 221 222 225 224 220 219 220 218 214 214
314 317 321 324 326 328 325 322 321 319 317 317 318 317 316 313 307 304 304 302 294 290 292 294 296 299 300 300 301 302 301 302 304 305 303 302 302 303 301 298 295 291 288 286 283 278 273 269 268 269 271 270 270 271 271 270 270 271 272 272 270 269 271 272 274 274 264 249 244 247 243 234 225 220 217 217 220 222 221 217 216 216 210 205 210
313 317 322 325 327 326 323 320 319 318 317 317 318 320 322 320 309 300 299 300 298 295 295 298 300 303 304 304 304 303 302 304 306 307 307 307 307 308 307 305 304 303 301 300 298 295 288 282 279 281 282 279 277 275 274 272 271 268 268 268 267 268 271 273 278 279 267 246 239 242 241 233 225 218 213 213 217 219 217 214 213 210 202 200 209
311 316 323 326 326 324 319 317 318 317 317 318 317 319 322 326 325 318 305 300 302 303 303 303 304 306 308 308 309 308 307 308 310 311 311 312 313 312 311 309 309 308 306 306 307 304 299 295 293 293 291 288 285 281 278 274 270 265 264 267 268 270 272 274 279 283 271 246 234 235 237 234 228 220 213 212 214 213 210 209 209 205 202 203 210
310 317 323 325 324 320 316 316 317 317 318 320 320 318 318 321 326 329 328 321 312 307 306 308 311 314 315 314 314 314 313 313 315 316 316 317 316 316 316 317 316 314 314 315 316 310 306 303 298 297 295 291 287 286 282 277 271 265 263 266 270 272 273 273 279 285 280 258 238 231 232 233 231 224 216 211 209 206 201 199 200 201 204 208 212
313 319 324 324 321 318 316 315 316 316 317 319 319 319 318 315 316 322 328 331 331 328 325 320 319 321 321 320 319 318 318 318 319 320 320 321 321 322 323 323 321 319 321 323 319 310 307 303 297 296 296 292 291 291 289 282 274 266 263 263 265 269 272 275 280 284 280 268 254 242 236 234 230 223 215 209 205 200 195 194 196 199 202 208 212
315 319 322 321 318 316 315 314 314 316 317 317 317 316 316 314 311 311 317 324 331 335 337 337 337 334 331 328 327 326 325 324 324 324 325 326 327 329 329 328 327 327 330 330 323 313 308 305 301 300 299 297 297 296 293 286 276 265 262 262 262 266 272 277 282 283 276 266 257 248 242 238 231 222 212 204 201 198 195 193 194 196 201 206 209
315 318 320 319 315 314 313 312 314 317 317 318 318 315 313 312 312 311 311 312 315 319 324 329 334 337 335 333 333 333 331 330 329 329 331 332 334 336 338 339 337 334 333 332 327 320 316 312 309 308 307 305 303 301 297 290 279 265 261 264 265 269 274 278 281 281 274 266 257 247 238 232 225 216 206 199 197 197 196 194 195 197 201 205 207
314 316 318 320 317 313 312 313 317 320 319 317 316 315 313 312 311 311 312 311 310 310 312 318 326 332 334 335 336 335 334 335 337 337 338 339 341 344 345 341 335 330 327 325 323 321 318 316 313 312 311 309 307 307 305 296 280 267 263 265 268 272 277 279 281 279 272 265 262 256 243 230 219 209 199 195 196 198 198 198 200 201 204 206 205
312 313 317 321 319 315 314 316 318 319 317 316 317 317 315 314 314 314 313 311 312 314 315 318 325 330 334 339 343 341 338 338 342 345 346 347 348 349 346 338 331 326 322 321 322 320 316 315 315 314 312 309 308 312 314 305 286 270 267 269 269 271 277 279 280 279 272 264 262 262 255 246 234 220 208 201 200 202 204 206 206 207 207 205 200
308 312 318 320 316 312 313 316 319 321 320 319 321 320 317 314 316 317 316 315 316 317 318 321 325 327 329 335 342 343 340 341 346 349 350 351 350 348 344 339 333 329 324 321 321 320 316 315 316 314 311 310 311 316 321 320 302 278 271 273 274 274 278 281 280 278 273 265 260 258 252 245 238 227 218 213 211 210 209 207 203 201 199 197 191
306 312 317 318 313 309 311 315 320 325 326 325 325 322 317 316 319 319 318 318 320 321 322 323 325 326 329 333 339 342 343 344 347 347 346 346 347 345 343 340 337 333 328 325 323 322 319 318 319 318 315 315 317 321 327 332 329 309 288 281 280 279 280 281 279 276 271 264 259 256 248 241 236 228 220 217 215 211 206 201 198 194 190 190 190
305 310 315 320 318 312 314 319 324 328 328 326 325 323 318 316 319 320 321 321 321 323 324 323 322 328 333 335 339 344 345 342 341 342 341 342 343 344 343 342 339 335 332 329 327 326 323 321 325 328 328 326 328 330 331 335 340 338 328 318 309 302 297 296 292 286 279 271 264 256 246 237 230 221 214 212 211 206 200 196 195 194 192 191 190
302 305 312 322 322 317 319 324 328 330 329 326 325 323 319 319 322 322 321 322 322 323 323 322 324 331 337 338 340 346 346 341 339 341 342 343 343 344 344 343 342 339 337 335 333 331 330 327 328 333 336 337 340 343 343 342 343 344 343 342 343 339 333 328 321 311 299 287 273 260 246 233 221 210 205 202 201 198 194 191 190 189 187 184 179
297 302 311 319 320 321 325 329 331 332 331 329 328 324 320 320 325 325 322 323 324 324 323 324 328 336 342 342 341 345 348 347 345 345 345 346 347 347 346 346 345 344 342 341 339 337 337 335 335 337 341 343 346 348 349 350 352 353 351 349 350 350 347 342 336 329 320 307 288 268 246 224 209 199 193 188 184 181 179 177 175 174 171 168 166
293 300 308 314 318 322 327 331 334 335 333 330 327 322 321 323 327 326 325 326 327 326 324 326 331 338 344 347 348 349 352 353 351 348 348 348 349 349 349 348 349 348 348 348 347 344 343 343 344 345 347 349 351 353 355 356 359 1 360 357 355 354 350 346 343 340 338 339 336 320 239 187 180 174 169 169 168 165 163 162 161 160 160 159 158
291 297 303 307 315 322 327 332 337 336 334 332 325 321 324 329 331 331 331 331 331 330 328 329 333 337 342 348 352 353 353 352 351 350 350 350 351 351 352 351 351 352 353 354 355 353 350 349 351 353 356 358 0 3 5 7 8 8 6 3 0 358 355 354 353 350 345 350 31 87 117 131 144 151 153 156 157 154 151 153 154 152 152 152 152
285 292 299 305 312 319 326 335 338 337 338 336 330 328 335 339 336 335 336 335 334 333 332 334 337 339 341 346 350 351 351 351 351 351 352 352 353 354 355 355 355 356 357 359 1 1 359 356 355 358 2 5 7 9 10 12 14 14 13 9 6 3 360 356 354 352 350 359 78 118 129 131 134 138 139 143 148 147 146 147 149 148 148 150 151
282 287 295 302 310 318 325 333 337 338 341 338 331 333 342 345 340 339 340 339 336 334 333 335 339 342 344 347 349 349 350 352 353 354 355 356 357 358 359 360 0 1 2 4 6 8 7 4 2 1 2 6 10 12 13 14 15 16 17 15 10 6 3 360 357 360 6 23 73 109 119 121 123 128 132 134 136 136 135 137 141 143 143 145 146
279 283 290 297 304 315 325 331 335 337 338 335 333 338 344 343 340 341 342 340 337 334 334 338 342 344 346 348 349 349 350 352 353 356 358 359 1 2 3 4 5 6 7 9 11 13 13 12 10 7 5 6 8 11 13 15 16 17 18 18 14 9 7 6 7 13 22 36 73 104 113 113 113 118 123 125 125 126 125 126 129 131 133 136 137
275 276 283 292 299 309 320 328 333 336 334 331 334 340 343 341 340 342 342 339 336 335 337 340 343 345 347 348 348 350 352 353 354 358 0 2 4 6 7 8 8 8 9 11 13 15 17 17 16 15 12 11 10 10 11 13 15 16 18 18 15 12 12 14 18 24 33 49 77 99 110 114 114 115 118 119 119 120 119 119 120 123 124 126 129
272 272 276 285 294 304 314 321 327 329 328 328 332 337 340 339 339 341 340 335 334 335 337 340 343 345 346 347 349 351 353 354 356 358 1 2 4 6 7 9 10 11 10 11 13 15 17 20 20 20 18 17 16 15 14 14 15 15 16 16 16 16 18 22 27 33 43 60 81 96 105 109 111 112 114 116 117 117 115 114 115 118 118 118 120
269 271 275 280 288 296 303 310 316 319 321 324 327 332 335 335 336 338 336 332 332 334 337 340 342 343 344 345 347 349 351 353 354 356 358 1 2 4 5 7 9 11 11 11 12 13 16 19 22 22 20 19 20 21 20 18 17 15 15 15 17 19 22 28 34 41 49 65 83 95 102 106 107 108 110 112 114 114 113 113 114 115 116 115 115
267 269 272 277 284 290 293 297 305 310 314 319 324 327 330 329 329 331 330 328 328 331 334 336 338 339 340 343 344 345 347 350 351 353 355 358 360 2 3 4 5 7 8 9 10 10 12 15 20 22 21 19 20 21 22 21 20 19 18 18 19 22 25 30 37 46 57 69 83 93 100 104 105 105 107 110 112 111 111 111 112 113 114 114 115